マクノート彗星

C/2007 K6 ( McNaught )

English version
Home page
Updated on April 12, 2008

---------------------------------------------------------------------

・ プロフィール

発見日 2007年5月27日
発見光度 18.9等
発見者 R. H. McNaught (Siding Spring Survey)

・ 軌道要素

The following orbital elements are taken from MPC 60465:

Epoch 2007 June 29.0 TT = JDT 2454280.5
T 2007 July 1.4628 TT                                   MPC
q   3.432989             (2000.0)            P               Q
z  +0.004481       Peri.  337.1374      +0.5227493      -0.0284436
 +/-0.000040       Node   298.0753      -0.5530910      -0.7718536
e   0.984617       Incl.  105.0635      -0.6487091      +0.6351637
From 40 observations 2007 May 27-Aug. 21, mean residual 0".3.

・ 光度変化

        m1 = 10.5 + 5 logΔ + 10.0 log r

---------------------------------------------------------------------

軌道要素はMPCのEphemerides and Orbital Elementsに掲載されたものです。
光度グラフはComet for Windowsで作成したものです。

---------------------------------------------------------------------

Copyright(C) Seiichi Yoshida (comet@aerith.net). All rights reserved.